Year,Month,Day,Hour,Minute,Value (Times are PST for temperature in C)
2010,08,16,00,00,17.50
2010,08,16,00,01,17.50
2010,08,16,00,02,17.50
2010,08,16,00,03,17.50
2010,08,16,00,04,17.50
2010,08,16,00,05,17.50
2010,08,16,00,06,17.50
2010,08,16,00,07,17.50
2010,08,16,00,08,17.50
2010,08,16,00,09,17.50
2010,08,16,00,10,17.50
2010,08,16,00,11,17.50
2010,08,16,00,12,17.50
2010,08,16,00,13,17.50
2010,08,16,00,14,17.50
2010,08,16,00,15,17.50
2010,08,16,00,16,17.50
2010,08,16,00,17,17.50
2010,08,16,00,18,17.50
2010,08,16,00,19,17.50
2010,08,16,00,20,17.50
2010,08,16,00,21,17.50
2010,08,16,00,22,17.50
2010,08,16,00,23,17.50
2010,08,16,00,24,17.50
2010,08,16,00,25,17.50
2010,08,16,00,26,17.50
2010,08,16,00,27,17.50
2010,08,16,00,28,17.50
2010,08,16,00,29,17.50
2010,08,16,00,30,17.50
2010,08,16,00,31,17.50
2010,08,16,00,32,17.50
2010,08,16,00,33,17.50
2010,08,16,00,34,17.60
2010,08,16,00,35,17.60
2010,08,16,00,36,17.60
2010,08,16,00,37,17.60
2010,08,16,00,38,17.60
2010,08,16,00,39,17.60
2010,08,16,00,40,17.60
2010,08,16,00,41,17.60
2010,08,16,00,42,17.60
2010,08,16,00,43,17.60
2010,08,16,00,44,17.60
2010,08,16,00,45,17.60
2010,08,16,00,46,17.60
2010,08,16,00,47,17.60
2010,08,16,00,48,17.60
2010,08,16,00,49,17.60
2010,08,16,00,50,17.60
2010,08,16,00,51,17.50
2010,08,16,00,52,17.50
2010,08,16,00,53,17.30
2010,08,16,00,54,17.30
2010,08,16,00,55,17.20
2010,08,16,00,56,17.10
2010,08,16,00,57,17.10
2010,08,16,00,58,17.00
2010,08,16,00,59,16.90
2010,08,16,01,00,16.90
2010,08,16,01,01,16.80
2010,08,16,01,02,16.80
2010,08,16,01,03,16.70
2010,08,16,01,04,16.70
2010,08,16,01,05,16.70
2010,08,16,01,06,16.60
2010,08,16,01,07,16.60
2010,08,16,01,08,16.60
2010,08,16,01,09,16.50
2010,08,16,01,10,16.40
2010,08,16,01,11,16.40
2010,08,16,01,12,16.40
2010,08,16,01,13,16.40
2010,08,16,01,14,16.40
2010,08,16,01,15,16.40
2010,08,16,01,16,16.40
2010,08,16,01,17,16.40
2010,08,16,01,18,16.40
2010,08,16,01,19,16.40
2010,08,16,01,20,16.40
2010,08,16,01,21,16.40
2010,08,16,01,22,16.50
2010,08,16,01,23,16.60
2010,08,16,01,24,16.60
2010,08,16,01,25,16.60
2010,08,16,01,26,16.70
2010,08,16,01,27,16.70
2010,08,16,01,28,16.70
2010,08,16,01,29,16.70
2010,08,16,01,30,16.70
2010,08,16,01,31,16.70
2010,08,16,01,32,16.70
2010,08,16,01,33,16.70
2010,08,16,01,34,16.70
2010,08,16,01,35,16.70
2010,08,16,01,36,16.70
2010,08,16,01,37,16.70
2010,08,16,01,38,16.70
2010,08,16,01,39,16.70
2010,08,16,01,40,16.70
2010,08,16,01,41,16.70
2010,08,16,01,42,16.70
2010,08,16,01,43,16.70
2010,08,16,01,44,16.70
2010,08,16,01,45,16.70
2010,08,16,01,46,16.70
2010,08,16,01,47,16.70
2010,08,16,01,48,16.70
2010,08,16,01,49,16.70
2010,08,16,01,50,16.70
2010,08,16,01,51,16.70
2010,08,16,01,52,16.70
2010,08,16,01,53,16.70
2010,08,16,01,54,16.70
2010,08,16,01,55,16.70
2010,08,16,01,56,16.70
2010,08,16,01,57,16.70
2010,08,16,01,58,16.60
2010,08,16,01,59,16.50
2010,08,16,02,00,16.40
2010,08,16,02,01,16.30
2010,08,16,02,02,16.30
2010,08,16,02,03,16.20
2010,08,16,02,04,16.20
2010,08,16,02,05,16.20
2010,08,16,02,06,16.20
2010,08,16,02,07,16.20
2010,08,16,02,08,16.20
2010,08,16,02,09,16.20
2010,08,16,02,10,16.20
2010,08,16,02,11,16.20
2010,08,16,02,12,16.10
2010,08,16,02,13,16.10
2010,08,16,02,14,16.00
2010,08,16,02,15,15.90
2010,08,16,02,16,15.80
2010,08,16,02,17,15.80
2010,08,16,02,18,15.80
2010,08,16,02,19,15.70
2010,08,16,02,20,15.70
2010,08,16,02,21,15.60
2010,08,16,02,22,15.60
2010,08,16,02,23,15.60
2010,08,16,02,24,15.50
2010,08,16,02,25,15.50
2010,08,16,02,26,15.50
2010,08,16,02,27,15.50
2010,08,16,02,28,15.50
2010,08,16,02,29,15.50
2010,08,16,02,30,15.50
2010,08,16,02,31,15.50
2010,08,16,02,32,15.50
2010,08,16,02,33,15.50
2010,08,16,02,34,15.50
2010,08,16,02,35,15.50
2010,08,16,02,36,15.50
2010,08,16,02,37,15.60
2010,08,16,02,38,15.60
2010,08,16,02,39,15.60
2010,08,16,02,40,15.60
2010,08,16,02,41,15.70
2010,08,16,02,42,15.70
2010,08,16,02,43,15.70
2010,08,16,02,44,15.80
2010,08,16,02,45,15.80
2010,08,16,02,46,15.80
2010,08,16,02,47,15.80
2010,08,16,02,48,15.80
2010,08,16,02,49,15.90
2010,08,16,02,50,15.90
2010,08,16,02,51,15.90
2010,08,16,02,52,15.90
2010,08,16,02,53,15.90
2010,08,16,02,54,15.90
2010,08,16,02,55,15.90
2010,08,16,02,56,15.90
2010,08,16,02,57,15.90
2010,08,16,02,58,15.90
2010,08,16,02,59,15.90
2010,08,16,03,00,15.90
2010,08,16,03,01,15.90
2010,08,16,03,02,15.90
2010,08,16,03,03,15.90
2010,08,16,03,04,15.90
2010,08,16,03,05,15.90
2010,08,16,03,06,15.80
2010,08,16,03,07,15.80
2010,08,16,03,08,15.80
2010,08,16,03,09,15.80
2010,08,16,03,10,15.80
2010,08,16,03,11,15.90
2010,08,16,03,12,15.90
2010,08,16,03,13,15.90
2010,08,16,03,14,15.90
2010,08,16,03,15,15.90
2010,08,16,03,16,15.90
2010,08,16,03,17,15.90
2010,08,16,03,18,15.90
2010,08,16,03,19,15.90
2010,08,16,03,20,15.90
2010,08,16,03,21,15.90
2010,08,16,03,22,15.90
2010,08,16,03,23,15.90
2010,08,16,03,24,15.90
2010,08,16,03,25,15.90
2010,08,16,03,26,15.90
2010,08,16,03,27,15.90
2010,08,16,03,28,15.90
2010,08,16,03,29,15.90
2010,08,16,03,30,15.90
2010,08,16,03,31,15.80
2010,08,16,03,32,15.80
2010,08,16,03,33,15.80
2010,08,16,03,34,15.70
2010,08,16,03,35,15.70
2010,08,16,03,36,15.60
2010,08,16,03,37,15.60
2010,08,16,03,38,15.50
2010,08,16,03,39,15.50
2010,08,16,03,40,15.50
2010,08,16,03,41,15.50
2010,08,16,03,42,15.50
2010,08,16,03,43,15.50
2010,08,16,03,44,15.50
2010,08,16,03,45,15.50
2010,08,16,03,46,15.50
2010,08,16,03,47,15.50
2010,08,16,03,48,15.50
2010,08,16,03,49,15.50
2010,08,16,03,50,15.50
2010,08,16,03,51,15.50
2010,08,16,03,52,15.50
2010,08,16,03,53,15.50
2010,08,16,03,54,15.50
2010,08,16,03,55,15.60
2010,08,16,03,56,15.60
2010,08,16,03,57,15.60
2010,08,16,03,58,15.60
2010,08,16,03,59,15.70
2010,08,16,04,00,15.70
2010,08,16,04,01,15.70
2010,08,16,04,02,15.70
2010,08,16,04,03,15.70
2010,08,16,04,04,15.80
2010,08,16,04,05,15.80
2010,08,16,04,06,15.80
2010,08,16,04,07,15.80
2010,08,16,04,08,15.80
2010,08,16,04,09,15.80
2010,08,16,04,10,15.70
2010,08,16,04,11,15.70
2010,08,16,04,12,15.70
2010,08,16,04,13,15.70
2010,08,16,04,14,15.70
2010,08,16,04,15,15.70
2010,08,16,04,16,15.80
2010,08,16,04,17,15.80
2010,08,16,04,18,15.80
2010,08,16,04,19,15.80
2010,08,16,04,20,15.80
2010,08,16,04,21,15.70
2010,08,16,04,22,15.70
2010,08,16,04,23,15.60
2010,08,16,04,24,15.50
2010,08,16,04,25,15.50
2010,08,16,04,26,15.50
2010,08,16,04,27,15.40
2010,08,16,04,28,15.40
2010,08,16,04,29,15.30
2010,08,16,04,30,15.30
2010,08,16,04,31,15.30
2010,08,16,04,32,15.30
2010,08,16,04,33,15.30
2010,08,16,04,34,15.30
2010,08,16,04,35,15.30
2010,08,16,04,36,15.30
2010,08,16,04,37,15.30
2010,08,16,04,38,15.30
2010,08,16,04,39,15.30
2010,08,16,04,40,15.30
2010,08,16,04,41,15.30
2010,08,16,04,42,15.30
2010,08,16,04,43,15.30
2010,08,16,04,44,15.30
2010,08,16,04,45,15.30
2010,08,16,04,46,15.20
2010,08,16,04,47,15.10
2010,08,16,04,48,15.10
2010,08,16,04,49,15.00
2010,08,16,04,50,15.00
2010,08,16,04,51,14.90
2010,08,16,04,52,14.90
2010,08,16,04,53,14.80
2010,08,16,04,54,14.80
2010,08,16,04,55,14.80
2010,08,16,04,56,14.80
2010,08,16,04,57,14.70
2010,08,16,04,58,14.70
2010,08,16,04,59,14.70
2010,08,16,05,00,14.60
2010,08,16,05,01,14.60
2010,08,16,05,02,14.60
2010,08,16,05,03,14.60
2010,08,16,05,04,14.60
2010,08,16,05,05,14.60
2010,08,16,05,06,14.60
2010,08,16,05,07,14.60
2010,08,16,05,08,14.60
2010,08,16,05,09,14.60
2010,08,16,05,10,14.60
2010,08,16,05,11,14.60
2010,08,16,05,12,14.60
2010,08,16,05,13,14.60
2010,08,16,05,14,14.60
2010,08,16,05,15,14.60
2010,08,16,05,16,14.60
2010,08,16,05,17,14.60
2010,08,16,05,18,14.60
2010,08,16,05,19,14.60
2010,08,16,05,20,14.60
2010,08,16,05,21,14.60
2010,08,16,05,22,14.60
2010,08,16,05,23,14.60
2010,08,16,05,24,14.60
2010,08,16,05,25,14.60
2010,08,16,05,26,14.60
2010,08,16,05,27,14.60
2010,08,16,05,28,14.60
2010,08,16,05,29,14.50
2010,08,16,05,30,14.50
2010,08,16,05,31,14.50
2010,08,16,05,32,14.50
2010,08,16,05,33,14.50
2010,08,16,05,34,14.50
2010,08,16,05,35,14.50
2010,08,16,05,36,14.50
2010,08,16,05,37,14.50
2010,08,16,05,38,14.50
2010,08,16,05,39,14.40
2010,08,16,05,40,14.40
2010,08,16,05,41,14.30
2010,08,16,05,42,14.20
2010,08,16,05,43,14.20
2010,08,16,05,44,14.10
2010,08,16,05,45,14.10
2010,08,16,05,46,14.00
2010,08,16,05,47,13.90
2010,08,16,05,48,13.90
2010,08,16,05,49,13.80
2010,08,16,05,50,13.80
2010,08,16,05,51,13.80
2010,08,16,05,52,13.70
2010,08,16,05,53,13.70
2010,08,16,05,54,13.70
2010,08,16,05,55,13.60
2010,08,16,05,56,13.60
2010,08,16,05,57,13.50
2010,08,16,05,58,13.50
2010,08,16,05,59,13.50
2010,08,16,06,00,13.40
2010,08,16,06,01,13.40
2010,08,16,06,02,13.40
2010,08,16,06,03,13.40
2010,08,16,06,04,13.40
2010,08,16,06,05,13.40
2010,08,16,06,06,13.40
2010,08,16,06,07,13.40
2010,08,16,06,08,13.40
2010,08,16,06,09,13.40
2010,08,16,06,10,13.40
2010,08,16,06,11,13.30
2010,08,16,06,12,13.30
2010,08,16,06,13,13.30
2010,08,16,06,14,13.30
2010,08,16,06,15,13.30
2010,08,16,06,16,13.30
2010,08,16,06,17,13.30
2010,08,16,06,18,13.20
2010,08,16,06,19,13.20
2010,08,16,06,20,13.20
2010,08,16,06,21,13.20
2010,08,16,06,22,13.10
2010,08,16,06,23,13.10
2010,08,16,06,24,13.10
2010,08,16,06,25,13.10
2010,08,16,06,26,13.10
2010,08,16,06,27,13.10
2010,08,16,06,28,13.10
2010,08,16,06,29,13.10
2010,08,16,06,30,13.10
2010,08,16,06,31,13.20
2010,08,16,06,32,13.20
2010,08,16,06,33,13.20
2010,08,16,06,34,13.20
2010,08,16,06,35,13.20
2010,08,16,06,36,13.30
2010,08,16,06,37,13.30
2010,08,16,06,38,13.30
2010,08,16,06,39,13.30
2010,08,16,06,40,13.30
2010,08,16,06,41,13.30
2010,08,16,06,42,13.40
2010,08,16,06,43,13.50
2010,08,16,06,44,13.50
2010,08,16,06,45,13.50
2010,08,16,06,46,13.50
2010,08,16,06,47,13.50
2010,08,16,06,48,13.50
2010,08,16,06,49,13.50
2010,08,16,06,50,13.50
2010,08,16,06,51,13.50
2010,08,16,06,52,13.50
2010,08,16,06,53,13.60
2010,08,16,06,54,13.60
2010,08,16,06,55,13.60
2010,08,16,06,56,13.60
2010,08,16,06,57,13.60
2010,08,16,06,58,13.70
2010,08,16,06,59,13.70
2010,08,16,07,00,13.70
2010,08,16,07,01,13.70
2010,08,16,07,02,13.70
2010,08,16,07,03,13.60
2010,08,16,07,04,13.60
2010,08,16,07,05,13.60
2010,08,16,07,06,13.60
2010,08,16,07,07,13.60
2010,08,16,07,08,13.60
2010,08,16,07,09,13.60
2010,08,16,07,10,13.60
2010,08,16,07,11,13.60
2010,08,16,07,12,13.70
2010,08,16,07,13,13.70
2010,08,16,07,14,13.70
2010,08,16,07,15,13.70
2010,08,16,07,16,13.80
2010,08,16,07,17,13.80
2010,08,16,07,18,13.90
2010,08,16,07,19,14.00
2010,08,16,07,20,14.00
2010,08,16,07,21,14.10
2010,08,16,07,22,14.20
2010,08,16,07,23,14.20
2010,08,16,07,24,14.20
2010,08,16,07,25,14.30
2010,08,16,07,26,14.40
2010,08,16,07,27,14.40
2010,08,16,07,28,14.50
2010,08,16,07,29,14.50
2010,08,16,07,30,14.60
2010,08,16,07,31,14.60
2010,08,16,07,32,14.70
2010,08,16,07,33,14.80
2010,08,16,07,34,14.80
2010,08,16,07,35,14.90
2010,08,16,07,36,15.00
2010,08,16,07,37,15.00
2010,08,16,07,38,15.10
2010,08,16,07,39,15.20
2010,08,16,07,40,15.30
2010,08,16,07,41,15.30
2010,08,16,07,42,15.50
2010,08,16,07,43,15.50
2010,08,16,07,44,15.60
2010,08,16,07,45,15.70
2010,08,16,07,46,15.80
2010,08,16,07,47,15.80
2010,08,16,07,48,15.90
2010,08,16,07,49,16.10
2010,08,16,07,50,16.10
2010,08,16,07,51,16.20
2010,08,16,07,52,16.30
2010,08,16,07,53,16.40
2010,08,16,07,54,16.40
2010,08,16,07,55,16.60
2010,08,16,07,56,16.70
2010,08,16,07,57,16.70
2010,08,16,07,58,16.90
2010,08,16,07,59,17.00
2010,08,16,08,00,17.10
2010,08,16,08,01,17.20
2010,08,16,08,02,17.40
2010,08,16,08,03,17.50
2010,08,16,08,04,17.60
2010,08,16,08,05,17.70
2010,08,16,08,06,17.90
2010,08,16,08,07,18.00
2010,08,16,08,08,18.10
2010,08,16,08,09,18.20
2010,08,16,08,10,18.40
2010,08,16,08,11,18.50
2010,08,16,08,12,18.60
2010,08,16,08,13,18.80
2010,08,16,08,14,18.90
2010,08,16,08,15,19.10
2010,08,16,08,16,19.20
2010,08,16,08,17,19.40
2010,08,16,08,18,19.60
2010,08,16,08,19,19.70
2010,08,16,08,20,19.90
2010,08,16,08,21,20.00
2010,08,16,08,22,20.20
2010,08,16,08,23,20.30
2010,08,16,08,24,20.50
2010,08,16,08,25,20.60
2010,08,16,08,26,20.70
2010,08,16,08,27,20.90
2010,08,16,08,28,21.00
2010,08,16,08,29,21.10
2010,08,16,08,30,21.20
2010,08,16,08,31,21.30
2010,08,16,08,32,21.40
2010,08,16,08,33,21.40
2010,08,16,08,34,21.30
2010,08,16,08,35,21.30
2010,08,16,08,36,21.30
2010,08,16,08,37,21.20
2010,08,16,08,38,21.00
2010,08,16,08,39,20.90
2010,08,16,08,40,20.70
2010,08,16,08,41,20.60
2010,08,16,08,42,20.40
2010,08,16,08,43,20.20
2010,08,16,08,44,20.10
2010,08,16,08,45,20.00
2010,08,16,08,46,19.90
2010,08,16,08,47,19.80
2010,08,16,08,48,19.70
2010,08,16,08,49,19.60
2010,08,16,08,50,19.50
2010,08,16,08,51,19.40
2010,08,16,08,52,19.30
2010,08,16,08,53,19.30
2010,08,16,08,54,19.20
2010,08,16,08,55,19.10
2010,08,16,08,56,19.10
2010,08,16,08,57,19.00
2010,08,16,08,58,18.90
2010,08,16,08,59,18.90
2010,08,16,09,00,18.90
2010,08,16,09,01,18.90
2010,08,16,09,02,18.90
2010,08,16,09,03,18.90
2010,08,16,09,04,18.90
2010,08,16,09,05,18.90
2010,08,16,09,06,19.00
2010,08,16,09,07,19.10
2010,08,16,09,08,19.10
2010,08,16,09,09,19.10
2010,08,16,09,10,19.10
2010,08,16,09,11,19.10
2010,08,16,09,12,19.10
2010,08,16,09,13,19.10
2010,08,16,09,14,19.10
2010,08,16,09,15,19.10
2010,08,16,09,16,19.10
2010,08,16,09,17,19.10
2010,08,16,09,18,19.10
2010,08,16,09,19,19.10
2010,08,16,09,20,19.10
2010,08,16,09,21,19.10
2010,08,16,09,22,19.10
2010,08,16,09,23,19.10
2010,08,16,09,24,19.10
2010,08,16,09,25,19.10
2010,08,16,09,26,19.10
2010,08,16,09,27,19.20
2010,08,16,09,28,19.20
2010,08,16,09,29,19.20
2010,08,16,09,30,19.30
2010,08,16,09,31,19.30
2010,08,16,09,32,19.30
2010,08,16,09,33,19.40
2010,08,16,09,34,19.40
2010,08,16,09,35,19.40
2010,08,16,09,36,19.40
2010,08,16,09,37,19.40
2010,08,16,09,38,19.50
2010,08,16,09,39,19.50
2010,08,16,09,40,19.50
2010,08,16,09,41,19.60
2010,08,16,09,42,19.60
2010,08,16,09,43,19.70
2010,08,16,09,44,19.70
2010,08,16,09,45,19.80
2010,08,16,09,46,19.90
2010,08,16,09,47,19.90
2010,08,16,09,48,20.10
2010,08,16,09,49,20.10
2010,08,16,09,50,20.20
2010,08,16,09,51,20.20
2010,08,16,09,52,20.30
2010,08,16,09,53,20.40
2010,08,16,09,54,20.50
2010,08,16,09,55,20.60
2010,08,16,09,56,20.70
2010,08,16,09,57,20.80
2010,08,16,09,58,20.90
2010,08,16,09,59,21.00
2010,08,16,10,00,21.10
2010,08,16,10,01,21.10
2010,08,16,10,02,21.30
2010,08,16,10,03,21.30
2010,08,16,10,04,21.30
2010,08,16,10,05,21.30
2010,08,16,10,06,21.20
2010,08,16,10,07,21.20
2010,08,16,10,08,21.20
2010,08,16,10,09,21.20
2010,08,16,10,10,21.30
2010,08,16,10,11,21.20
2010,08,16,10,12,21.20
2010,08,16,10,13,21.20
2010,08,16,10,14,21.20
2010,08,16,10,15,21.20
2010,08,16,10,16,21.10
2010,08,16,10,17,21.10
2010,08,16,10,18,21.10
2010,08,16,10,19,21.10
2010,08,16,10,20,21.00
2010,08,16,10,21,20.90
2010,08,16,10,22,20.90
2010,08,16,10,23,20.80
2010,08,16,10,24,20.70
2010,08,16,10,25,20.70
2010,08,16,10,26,20.60
2010,08,16,10,27,20.50
2010,08,16,10,28,20.40
2010,08,16,10,29,20.30
2010,08,16,10,30,20.30
2010,08,16,10,31,20.30
2010,08,16,10,32,20.40
2010,08,16,10,33,20.40
2010,08,16,10,34,20.40
2010,08,16,10,35,20.40
2010,08,16,10,36,20.40
2010,08,16,10,37,20.40
2010,08,16,10,38,20.40
2010,08,16,10,39,20.50
2010,08,16,10,40,20.50
2010,08,16,10,41,20.60
2010,08,16,10,42,20.60
2010,08,16,10,43,20.70
2010,08,16,10,44,20.70
2010,08,16,10,45,20.80
2010,08,16,10,46,20.80
2010,08,16,10,47,20.80
2010,08,16,10,48,20.80
2010,08,16,10,49,20.90
2010,08,16,10,50,21.00
2010,08,16,10,51,21.00
2010,08,16,10,52,21.10
2010,08,16,10,53,21.10
2010,08,16,10,54,21.20
2010,08,16,10,55,21.20
2010,08,16,10,56,21.30
2010,08,16,10,57,21.30
2010,08,16,10,58,21.40
2010,08,16,10,59,21.50
2010,08,16,11,00,21.60
2010,08,16,11,01,21.60
2010,08,16,11,02,21.60
2010,08,16,11,03,21.60
2010,08,16,11,04,21.60
2010,08,16,11,05,21.70
2010,08,16,11,06,21.70
2010,08,16,11,07,21.80
2010,08,16,11,08,21.80
2010,08,16,11,09,21.80
2010,08,16,11,10,21.90
2010,08,16,11,11,22.00
2010,08,16,11,12,22.10
2010,08,16,11,13,22.10
2010,08,16,11,14,22.20
2010,08,16,11,15,22.10
2010,08,16,11,16,22.00
2010,08,16,11,17,22.00
2010,08,16,11,18,21.90
2010,08,16,11,19,21.80
2010,08,16,11,20,21.80
2010,08,16,11,21,21.90
2010,08,16,11,22,21.90
2010,08,16,11,23,22.00
2010,08,16,11,24,22.00
2010,08,16,11,25,22.10
2010,08,16,11,26,22.10
2010,08,16,11,27,22.10
2010,08,16,11,28,22.20
2010,08,16,11,29,22.20
2010,08,16,11,30,22.20
2010,08,16,11,31,22.10
2010,08,16,11,32,22.10
2010,08,16,11,33,22.10
2010,08,16,11,34,22.10
2010,08,16,11,35,22.20
2010,08,16,11,36,22.20
2010,08,16,11,37,22.20
2010,08,16,11,38,22.10
2010,08,16,11,39,22.10
2010,08,16,11,40,22.10
2010,08,16,11,41,22.10
2010,08,16,11,42,22.20
2010,08,16,11,43,22.20
2010,08,16,11,44,22.20
2010,08,16,11,45,22.10
2010,08,16,11,46,22.10
2010,08,16,11,47,22.10
2010,08,16,11,48,22.10
2010,08,16,11,49,22.20
2010,08,16,11,50,22.20
2010,08,16,11,51,22.10
2010,08,16,11,52,22.10
2010,08,16,11,53,22.10
2010,08,16,11,54,22.20
2010,08,16,11,55,22.20
2010,08,16,11,56,22.30
2010,08,16,11,57,22.30
2010,08,16,11,58,22.30
2010,08,16,11,59,22.40
2010,08,16,12,00,22.40
2010,08,16,12,01,22.40
2010,08,16,12,02,22.30
2010,08,16,12,03,22.30
2010,08,16,12,04,22.30
2010,08,16,12,05,22.40
2010,08,16,12,06,22.60
2010,08,16,12,07,22.70
2010,08,16,12,08,22.80
2010,08,16,12,09,22.90
2010,08,16,12,10,23.00
2010,08,16,12,11,23.10
2010,08,16,12,12,23.10
2010,08,16,12,13,23.20
2010,08,16,12,14,23.30
2010,08,16,12,15,23.30
2010,08,16,12,16,23.30
2010,08,16,12,17,23.40
2010,08,16,12,18,23.50
2010,08,16,12,19,23.60
2010,08,16,12,20,23.60
2010,08,16,12,21,23.70
2010,08,16,12,22,23.70
2010,08,16,12,23,23.80
2010,08,16,12,24,23.90
2010,08,16,12,25,24.00
2010,08,16,12,26,24.10
2010,08,16,12,27,24.10
2010,08,16,12,28,24.10
2010,08,16,12,29,24.20
2010,08,16,12,30,24.30
2010,08,16,12,31,24.40
2010,08,16,12,32,24.50
2010,08,16,12,33,24.50
2010,08,16,12,34,24.60
2010,08,16,12,35,24.70
2010,08,16,12,36,24.70
2010,08,16,12,37,24.70
2010,08,16,12,38,24.70
2010,08,16,12,39,24.80
2010,08,16,12,40,24.80
2010,08,16,12,41,24.90
2010,08,16,12,42,24.90
2010,08,16,12,43,24.90
2010,08,16,12,44,24.90
2010,08,16,12,45,24.90
2010,08,16,12,46,24.90
2010,08,16,12,47,24.80
2010,08,16,12,48,24.70
2010,08,16,12,49,24.70
2010,08,16,12,50,24.60
2010,08,16,12,51,24.60
2010,08,16,12,52,24.60
2010,08,16,12,53,24.60
2010,08,16,12,54,24.60
2010,08,16,12,55,24.60
2010,08,16,12,56,24.60
2010,08,16,12,57,24.70
2010,08,16,12,58,24.70
2010,08,16,12,59,24.80
2010,08,16,13,00,24.80
2010,08,16,13,01,24.90
2010,08,16,13,02,24.90
2010,08,16,13,03,25.00
2010,08,16,13,04,25.00
2010,08,16,13,05,25.10
2010,08,16,13,06,25.20
2010,08,16,13,07,25.20
2010,08,16,13,08,25.30
2010,08,16,13,09,25.40
2010,08,16,13,10,25.50
2010,08,16,13,11,25.50
2010,08,16,13,12,25.50
2010,08,16,13,13,25.60
2010,08,16,13,14,25.60
2010,08,16,13,15,25.70
2010,08,16,13,16,25.80
2010,08,16,13,17,25.80
2010,08,16,13,18,25.90
2010,08,16,13,19,25.90
2010,08,16,13,20,25.90
2010,08,16,13,21,25.90
2010,08,16,13,22,25.80
2010,08,16,13,23,25.70
2010,08,16,13,24,25.50
2010,08,16,13,25,25.40
2010,08,16,13,26,25.40
2010,08,16,13,27,25.30
2010,08,16,13,28,25.30
2010,08,16,13,29,25.40
2010,08,16,13,30,25.40
2010,08,16,13,31,25.40
2010,08,16,13,32,25.40
2010,08,16,13,33,25.50
2010,08,16,13,34,25.50
2010,08,16,13,35,25.60
2010,08,16,13,36,25.70
2010,08,16,13,37,25.70
2010,08,16,13,38,25.80
2010,08,16,13,39,25.90
2010,08,16,13,40,25.90
2010,08,16,13,41,26.00
2010,08,16,13,42,26.00
2010,08,16,13,43,26.10
2010,08,16,13,44,26.10
2010,08,16,13,45,26.10
2010,08,16,13,46,26.10
2010,08,16,13,47,26.20
2010,08,16,13,48,26.20
2010,08,16,13,49,26.20
2010,08,16,13,50,26.30
2010,08,16,13,51,26.30
2010,08,16,13,52,26.30
2010,08,16,13,53,26.40
2010,08,16,13,54,26.40
2010,08,16,13,55,26.30
2010,08,16,13,56,26.30
2010,08,16,13,57,26.30
2010,08,16,13,58,26.40
2010,08,16,13,59,26.50
2010,08,16,14,00,26.60
2010,08,16,14,01,26.60
2010,08,16,14,02,26.60
2010,08,16,14,03,26.60
2010,08,16,14,04,26.60
2010,08,16,14,05,26.70
2010,08,16,14,06,26.70
2010,08,16,14,07,26.60
2010,08,16,14,08,26.60
2010,08,16,14,09,26.60
2010,08,16,14,10,26.60
2010,08,16,14,11,26.70
2010,08,16,14,12,26.70
2010,08,16,14,13,26.70
2010,08,16,14,14,26.70
2010,08,16,14,15,26.80
2010,08,16,14,16,26.80
2010,08,16,14,17,26.80
2010,08,16,14,18,26.80
2010,08,16,14,19,26.80
2010,08,16,14,20,26.90
2010,08,16,14,21,26.90
2010,08,16,14,22,26.90
2010,08,16,14,23,26.80
2010,08,16,14,24,26.80
2010,08,16,14,25,26.70
2010,08,16,14,26,26.60
2010,08,16,14,27,26.40
2010,08,16,14,28,26.30
2010,08,16,14,29,26.20
2010,08,16,14,30,26.20
2010,08,16,14,31,26.20
2010,08,16,14,32,26.20
2010,08,16,14,33,26.20
2010,08,16,14,34,26.30
2010,08,16,14,35,26.30
2010,08,16,14,36,26.30
2010,08,16,14,37,26.30
2010,08,16,14,38,26.40
2010,08,16,14,39,26.40
2010,08,16,14,40,26.40
2010,08,16,14,41,26.50
2010,08,16,14,42,26.60
2010,08,16,14,43,26.60
2010,08,16,14,44,26.60
2010,08,16,14,45,26.60
2010,08,16,14,46,26.60
2010,08,16,14,47,26.60
2010,08,16,14,48,26.60
2010,08,16,14,49,26.60
2010,08,16,14,50,26.60
2010,08,16,14,51,26.60
2010,08,16,14,52,26.70
2010,08,16,14,53,26.80
2010,08,16,14,54,26.80
2010,08,16,14,55,26.90
2010,08,16,14,56,26.90
2010,08,16,14,57,27.10
2010,08,16,14,58,27.10
2010,08,16,14,59,27.20
2010,08,16,15,00,27.20
2010,08,16,15,01,27.20
2010,08,16,15,02,27.30
2010,08,16,15,03,27.30
2010,08,16,15,04,27.30
2010,08,16,15,05,27.30
2010,08,16,15,06,27.30
2010,08,16,15,07,27.30
2010,08,16,15,08,27.30
2010,08,16,15,09,27.30
2010,08,16,15,10,27.40
2010,08,16,15,11,27.50
2010,08,16,15,12,27.60
2010,08,16,15,13,27.60
2010,08,16,15,14,27.70
2010,08,16,15,15,27.70
2010,08,16,15,16,27.60
2010,08,16,15,17,27.60
2010,08,16,15,18,27.50
2010,08,16,15,19,27.40
2010,08,16,15,20,27.30
2010,08,16,15,21,27.20
2010,08,16,15,22,27.20
2010,08,16,15,23,27.20
2010,08,16,15,24,27.20
2010,08,16,15,25,27.20
2010,08,16,15,26,27.30
2010,08,16,15,27,27.30
2010,08,16,15,28,27.30
2010,08,16,15,29,27.30
2010,08,16,15,30,27.30
2010,08,16,15,31,27.30
2010,08,16,15,32,27.30
2010,08,16,15,33,27.30
2010,08,16,15,34,27.30
2010,08,16,15,35,27.30
2010,08,16,15,36,27.30
2010,08,16,15,37,27.30
2010,08,16,15,38,27.30
2010,08,16,15,39,27.30
2010,08,16,15,40,27.30
2010,08,16,15,41,27.30
2010,08,16,15,42,27.40
2010,08,16,15,43,27.60
2010,08,16,15,44,27.60
2010,08,16,15,45,27.70
2010,08,16,15,46,27.90
2010,08,16,15,47,28.00
2010,08,16,15,48,28.00
2010,08,16,15,49,27.90
2010,08,16,15,50,27.80
2010,08,16,15,51,27.70
2010,08,16,15,52,27.70
2010,08,16,15,53,27.70
2010,08,16,15,54,27.80
2010,08,16,15,55,27.90
2010,08,16,15,56,28.00
2010,08,16,15,57,28.10
2010,08,16,15,58,28.10
2010,08,16,15,59,28.10
2010,08,16,16,00,28.10
2010,08,16,16,01,28.10
2010,08,16,16,02,28.10
2010,08,16,16,03,28.30
2010,08,16,16,04,28.40
2010,08,16,16,05,28.40
2010,08,16,16,06,28.40
2010,08,16,16,07,28.40
2010,08,16,16,08,28.50
2010,08,16,16,09,28.60
2010,08,16,16,10,28.70
2010,08,16,16,11,28.80
2010,08,16,16,12,28.70
2010,08,16,16,13,28.50
2010,08,16,16,14,28.30
2010,08,16,16,15,28.10
2010,08,16,16,16,28.00
2010,08,16,16,17,27.90
2010,08,16,16,18,27.80
2010,08,16,16,19,27.70
2010,08,16,16,20,27.70
2010,08,16,16,21,27.70
2010,08,16,16,22,27.70
2010,08,16,16,23,27.90
2010,08,16,16,24,28.20
2010,08,16,16,25,28.50
2010,08,16,16,26,28.80
2010,08,16,16,27,29.00
2010,08,16,16,28,29.10
2010,08,16,16,29,29.20
2010,08,16,16,30,29.30
2010,08,16,16,31,29.40
2010,08,16,16,32,29.50
2010,08,16,16,33,29.60
2010,08,16,16,34,29.60
2010,08,16,16,35,29.70
2010,08,16,16,36,29.70
2010,08,16,16,37,29.80
2010,08,16,16,38,29.90
2010,08,16,16,39,29.90
2010,08,16,16,40,29.90
2010,08,16,16,41,29.90
2010,08,16,16,42,29.90
2010,08,16,16,43,29.90
2010,08,16,16,44,29.90
2010,08,16,16,45,29.90
2010,08,16,16,46,29.90
2010,08,16,16,47,29.90
2010,08,16,16,48,29.90
2010,08,16,16,49,29.80
2010,08,16,16,50,29.80
2010,08,16,16,51,29.70
2010,08,16,16,52,29.60
2010,08,16,16,53,29.60
2010,08,16,16,54,29.60
2010,08,16,16,55,29.60
2010,08,16,16,56,29.60
2010,08,16,16,57,29.60
2010,08,16,16,58,29.50
2010,08,16,16,59,29.40
2010,08,16,17,00,29.40
2010,08,16,17,01,29.40
2010,08,16,17,02,29.30
2010,08,16,17,03,29.30
2010,08,16,17,04,29.30
2010,08,16,17,05,29.20
2010,08,16,17,06,29.10
2010,08,16,17,07,29.10
2010,08,16,17,08,29.10
2010,08,16,17,09,29.00
2010,08,16,17,10,28.90
2010,08,16,17,11,28.90
2010,08,16,17,12,28.90
2010,08,16,17,13,28.90
2010,08,16,17,14,28.80
2010,08,16,17,15,28.80
2010,08,16,17,16,28.80
2010,08,16,17,17,28.80
2010,08,16,17,18,28.80
2010,08,16,17,19,28.80